Home > Weather > Woodstock > Past weeks

Flag for USA Past Weather in Woodstock, New York, USA — Yesterday and Last 2 Weeks

Now
82 °F

Sunny.


Feels Like: 87 °F
Forecast: 67 / 93 °F
Wind: 3 mph from Southwest

Location: Dutchess County Airport

Current Time: Jul 25, 2016 at 6:10:45 PM

Latest Report: Jul 25, 2016 at 4:53 PM


Visibility: 10 mi

Pressure: 29.81 "Hg

Humidity: 74%

Dew Point: 73 °F

Location of WoodstockLocation

Past Weather in Woodstock — Graph

°F

Woodstock Temperature Yesterday

Maximum temperature yesterday: 93 °F (at 3:53 PM)
Minimum temperature yesterday: 63 °F (at 5:53 AM)
Average temperature yesterday: 79 °F

High & Low Weather Summary for the Past Weeks

 TemperatureHumidityPressure
High97 °F (Jul 22, 2:53 PM)94% (Jul 19, 5:53 AM)30.24 "Hg (Jul 19, 5:53 AM)
Low56 °F (Jul 20, 3:53 AM)23% (Jul 23, 4:53 PM)29.73 "Hg (Jul 22, 6:53 PM)
Average77 °F65%29.98 "Hg
* Reported Jul 10 4:53 PM — Jul 25 4:53 PM, Woodstock, Weather by CustomWeather, © 2016

Note: Actual official high and low records may vary slightly from our data, if they occured in-between our weather recording intervals... More about our weather records

Advertising

Woodstock Weather History for the Previous 24 Hours

Scroll right to see more
 ConditionsComfort  
Time TempWeatherWind HumidityBarometerVisibility
4:53 PM
Mon, Jul 25
82 °FSunny.3 mph74%29.81 "Hg10 mi
3:53 PM80 °FSunny.6 mph81%29.82 "Hg7 mi
2:58 PM76 °FThundershowers. Broken clouds.5 mph88%29.88 "Hg7 mi
2:53 PM76 °FThunderstorms. Fog.7 mph88%29.87 "Hg2 mi
1:53 PM95 °FPassing clouds.9 mph37%29.83 "Hg10 mi
12:53 PM95 °FSunny.8 mph40%29.84 "Hg10 mi
11:53 AM92 °FSunny.9 mph46%29.85 "Hg10 mi
10:53 AM89 °FSunny.7 mph50%29.88 "Hg10 mi
9:53 AM87 °FSunny.10 mph53%29.88 "Hg10 mi
8:53 AM84 °FSunny.7 mph59%29.90 "Hg10 mi
7:53 AM78 °FSunny.3 mph71%29.90 "Hg10 mi
6:53 AM73 °FPartly sunny.No wind81%29.91 "Hg10 mi
5:53 AM72 °FPassing clouds.No wind81%29.91 "Hg10 mi
4:53 AM71 °FClear.No wind81%29.91 "Hg10 mi
3:53 AM70 °FClear.3 mph84%29.90 "Hg10 mi
2:53 AM70 °FClear.No wind84%29.91 "Hg10 mi
1:53 AM71 °FClear.No wind81%29.91 "Hg10 mi
12:53 AM73 °FClear.No wind79%29.94 "Hg10 mi
11:53 PM
Sun, Jul 24
76 °FClear.No wind69%29.94 "Hg10 mi
10:53 PM76 °FClear.No wind72%29.94 "Hg10 mi
9:53 PM77 °FClear.No wind71%29.94 "Hg10 mi
8:53 PM78 °FScattered clouds.No wind66%29.92 "Hg10 mi
7:53 PM83 °FSunny.No wind59%29.91 "Hg10 mi
6:53 PM90 °FSunny.No wind39%29.91 "Hg10 mi
Weather by CustomWeather, © 2016

See weather overviewHow to use our weather pages